|
ตารางข้อมูล |
ค้นข้อมูล1 |
ค้นข้อมูล2 |
ค่าสูงสุด-ต่ำสุด |
Select Sensor -->| 20402 | 4529A | 4529C | 4529D | 89M1A | 89M1B | หน้าจอย่อ | 4529 |
ข้อมูลรวม (ยังไม่ได้เลือก Sensor)
| ID | Date Time | Room | Temp | Humidity | RSSI | Time |
|---|
| 1155165 | 2026-09-05 11:56:39 | 89M1A | 35.2 °C | 63.2 % | | 11:56 |
| 1155164 | 2026-09-05 11:56:22 | 4529A | 28.5 °C | 60.5 % | | 11:56 |
| 1155163 | 2026-09-05 11:54:54 | 89M1B | 33.2 °C | 67.4 % | | 11:54 |
| 1155162 | 2026-09-05 11:51:53 | 4529D | 30.2 °C | 69.2 % | | 11:51 |
| 1155161 | 2026-09-05 11:50:28 | 4529C | 31.2 °C | 55.4 % | | 11:50 |
| 1155160 | 2026-09-05 11:48:48 | 20402 | 29.8 °C | 47.6 % | | 11:48 |
| 1155159 | 2026-09-05 11:47:01 | 89M1A | 35.1 °C | 64.7 % | | 11:47 |
| 1155158 | 2026-09-05 11:46:11 | 4529A | 28.5 °C | 60.6 % | | 11:46 |
| 1155157 | 2026-09-05 11:45:15 | 89M1B | 33.3 °C | 67.7 % | | 11:45 |
| 1155156 | 2026-09-05 11:42:20 | 4529D | 30.2 °C | 69.4 % | | 11:42 |
| 1155155 | 2026-09-05 11:40:26 | 4529C | 31.1 °C | 55.3 % | | 11:40 |
| 1155154 | 2026-09-05 11:38:36 | 20402 | 29.8 °C | 47.2 % | | 11:38 |
| 1155153 | 2026-09-05 11:37:23 | 89M1A | 34.9 °C | 65.4 % | | 11:37 |
| 1155152 | 2026-09-05 11:35:57 | 4529A | 28.9 °C | 65.0 % | | 11:35 |
| 1155151 | 2026-09-05 11:35:36 | 89M1B | 33.1 °C | 66.8 % | | 11:35 |
| 1155150 | 2026-09-05 11:32:47 | 4529D | 30.2 °C | 69.4 % | | 11:32 |
| 1155149 | 2026-09-05 11:30:24 | 4529C | 31.1 °C | 55.2 % | | 11:30 |
| 1155148 | 2026-09-05 11:28:26 | 20402 | 29.7 °C | 46.9 % | | 11:28 |
| 1155147 | 2026-09-05 11:27:45 | 89M1A | 35.3 °C | 60.3 % | | 11:27 |
| 1155146 | 2026-09-05 11:25:58 | 89M1B | 32.9 °C | 66.5 % | | 11:25 |
| 1155145 | 2026-09-05 11:25:45 | 4529A | 29.0 °C | 66.3 % | | 11:25 |
| 1155144 | 2026-09-05 11:23:15 | 4529D | 30.1 °C | 69.3 % | | 11:23 |
| 1155143 | 2026-09-05 11:20:21 | 4529C | 31.0 °C | 54.9 % | | 11:20 |
| 1155142 | 2026-09-05 11:18:16 | 20402 | 29.7 °C | 46.6 % | | 11:18 |
| 1155141 | 2026-09-05 11:18:07 | 89M1A | 36.1 °C | 56.2 % | | 11:18 |
| 1155140 | 2026-09-05 11:16:19 | 89M1B | 32.8 °C | 66.6 % | | 11:16 |
| 1155139 | 2026-09-05 11:15:34 | 4529A | 29.0 °C | 66.0 % | | 11:15 |
| 1155138 | 2026-09-05 11:13:41 | 4529D | 30.2 °C | 69.2 % | | 11:13 |
| 1155137 | 2026-09-05 11:10:19 | 4529C | 31.0 °C | 54.6 % | | 11:10 |
| 1155136 | 2026-09-05 11:08:28 | 89M1A | 35.8 °C | 56.3 % | | 11:08 |
| 1155135 | 2026-09-05 11:08:06 | 20402 | 29.6 °C | 46.2 % | | 11:08 |
| 1155134 | 2026-09-05 11:06:39 | 89M1B | 32.7 °C | 67.4 % | | 11:06 |
| 1155133 | 2026-09-05 11:05:19 | 4529A | 29.1 °C | 62.0 % | | 11:05 |
| 1155132 | 2026-09-05 11:04:09 | 4529D | 30.1 °C | 69.1 % | | 11:04 |
| 1155131 | 2026-09-05 11:00:16 | 4529C | 31.0 °C | 54.4 % | | 11:00 |
| 1155130 | 2026-09-05 10:58:49 | 89M1A | 35.4 °C | 57.1 % | | 10:58 |
| 1155129 | 2026-09-05 10:57:56 | 20402 | 29.5 °C | 45.8 % | | 10:57 |
| 1155128 | 2026-09-05 10:57:00 | 89M1B | 32.6 °C | 67.5 % | | 10:57 |
| 1155127 | 2026-09-05 10:55:07 | 4529A | 29.1 °C | 62.2 % | | 10:55 |
| 1155126 | 2026-09-05 10:54:36 | 4529D | 30.0 °C | 69.1 % | | 10:54 |
| 1155125 | 2026-09-05 10:50:14 | 4529C | 30.9 °C | 54.1 % | | 10:50 |
| 1155124 | 2026-09-05 10:49:13 | 89M1A | 35.6 °C | 56.9 % | | 10:49 |
| 1155123 | 2026-09-05 10:47:45 | 20402 | 29.5 °C | 45.8 % | | 10:47 |
| 1155122 | 2026-09-05 10:47:22 | 89M1B | 32.4 °C | 68.2 % | | 10:47 |
| 1155121 | 2026-09-05 10:45:03 | 4529D | 29.9 °C | 69.0 % | | 10:45 |
| 1155120 | 2026-09-05 10:44:53 | 4529A | 28.7 °C | 65.5 % | | 10:44 |
| 1155119 | 2026-09-05 10:40:12 | 4529C | 30.9 °C | 53.8 % | | 10:40 |
| 1155118 | 2026-09-05 10:39:37 | 89M1A | 36.1 °C | 57.2 % | | 10:39 |
| 1155117 | 2026-09-05 10:37:43 | 89M1B | 32.2 °C | 68.2 % | | 10:37 |
| 1155116 | 2026-09-05 10:37:33 | 20402 | 29.4 °C | 44.8 % | | 10:37 |
| 1155115 | 2026-09-05 10:35:30 | 4529D | 29.8 °C | 68.8 % | | 10:35 |
| 1155114 | 2026-09-05 10:34:39 | 4529A | 29.3 °C | 68.0 % | | 10:34 |
| 1155113 | 2026-09-05 10:30:09 | 4529C | 30.8 °C | 53.5 % | | 10:30 |
| 1155112 | 2026-09-05 10:29:57 | 89M1A | 35.1 °C | 58.2 % | | 10:29 |
| 1155111 | 2026-09-05 10:28:04 | 89M1B | 32.1 °C | 68.7 % | | 10:28 |
| 1155110 | 2026-09-05 10:27:23 | 20402 | 29.3 °C | 44.3 % | | 10:27 |
| 1155109 | 2026-09-05 10:25:56 | 4529D | 29.8 °C | 68.8 % | | 10:25 |
| 1155108 | 2026-09-05 10:24:28 | 4529A | 28.5 °C | 65.7 % | | 10:24 |
| 1155107 | 2026-09-05 10:20:20 | 89M1A | 35.3 °C | 58.4 % | | 10:20 |
| 1155106 | 2026-09-05 10:20:07 | 4529C | 30.8 °C | 53.3 % | | 10:20 |
| 1155105 | 2026-09-05 10:18:25 | 89M1B | 32.1 °C | 68.9 % | | 10:18 |
| 1155104 | 2026-09-05 10:17:13 | 20402 | 29.2 °C | 43.5 % | | 10:17 |
| 1155103 | 2026-09-05 10:16:24 | 4529D | 29.8 °C | 68.7 % | | 10:16 |
| 1155102 | 2026-09-05 10:14:16 | 4529A | 29.0 °C | 69.1 % | | 10:14 |
| 1155101 | 2026-09-05 10:10:42 | 89M1A | 35.1 °C | 59.8 % | | 10:10 |
| 1155100 | 2026-09-05 10:10:04 | 4529C | 30.8 °C | 53.0 % | | 10:10 |
| 1155099 | 2026-09-05 10:08:46 | 89M1B | 31.8 °C | 69.1 % | | 10:08 |
| 1155098 | 2026-09-05 10:07:03 | 20402 | 29.1 °C | 43.0 % | | 10:07 |
| 1155097 | 2026-09-05 10:06:51 | 4529D | 29.9 °C | 68.6 % | | 10:06 |
| 1155096 | 2026-09-05 10:04:04 | 4529A | 29.2 °C | 65.8 % | | 10:04 |
| 1155095 | 2026-09-05 10:01:06 | 89M1A | 34.8 °C | 60.5 % | | 10:01 |
| 1155094 | 2026-09-05 10:00:02 | 4529C | 30.8 °C | 52.6 % | | 10:00 |
| 1155093 | 2026-09-05 09:59:07 | 89M1B | 31.9 °C | 69.4 % | | 09:59 |
| 1155092 | 2026-09-05 09:57:18 | 4529D | 30.0 °C | 68.2 % | | 09:57 |
| 1155091 | 2026-09-05 09:56:53 | 20402 | 29.1 °C | 43.0 % | | 09:56 |
| 1155090 | 2026-09-05 09:53:52 | 4529A | 28.8 °C | 67.7 % | | 09:53 |
| 1155089 | 2026-09-05 09:51:26 | 89M1A | 33.9 °C | 63.0 % | | 09:51 |
| 1155088 | 2026-09-05 09:49:59 | 4529C | 30.7 °C | 52.5 % | | 09:49 |
| 1155087 | 2026-09-05 09:49:29 | 89M1B | 31.8 °C | 69.3 % | | 09:49 |
| 1155086 | 2026-09-05 09:47:46 | 4529D | 30.0 °C | 68.2 % | | 09:47 |
| 1155085 | 2026-09-05 09:46:40 | 20402 | 28.8 °C | 42.0 % | | 09:46 |
| 1155084 | 2026-09-05 09:43:40 | 4529A | 28.8 °C | 67.6 % | | 09:43 |
| 1155083 | 2026-09-05 09:41:51 | 89M1A | 33.9 °C | 62.2 % | | 09:41 |
| 1155082 | 2026-09-05 09:39:57 | 4529C | 30.7 °C | 52.6 % | | 09:39 |
| 1155081 | 2026-09-05 09:39:50 | 89M1B | 31.6 °C | 69.8 % | | 09:39 |
| 1155080 | 2026-09-05 09:38:13 | 4529D | 29.9 °C | 68.0 % | | 09:38 |
| 1155079 | 2026-09-05 09:36:30 | 20402 | 28.4 °C | 41.8 % | | 09:36 |
| 1155078 | 2026-09-05 09:33:27 | 4529A | 28.6 °C | 66.8 % | | 09:33 |
| 1155077 | 2026-09-05 09:32:12 | 89M1A | 33.4 °C | 65.2 % | | 09:32 |
| 1155076 | 2026-09-05 09:30:10 | 89M1B | 31.5 °C | 69.7 % | | 09:30 |
| 1155075 | 2026-09-05 09:29:55 | 4529C | 30.6 °C | 52.9 % | | 09:29 |
| 1155074 | 2026-09-05 09:28:41 | 4529D | 29.9 °C | 67.9 % | | 09:28 |
| 1155073 | 2026-09-05 09:26:20 | 20402 | 28.4 °C | 41.9 % | | 09:26 |
| 1155072 | 2026-09-05 09:23:16 | 4529A | 28.6 °C | 66.9 % | | 09:23 |
| 1155071 | 2026-09-05 09:22:33 | 89M1A | 32.7 °C | 67.2 % | | 09:22 |
| 1155070 | 2026-09-05 09:20:32 | 89M1B | 31.5 °C | 70.0 % | | 09:20 |
| 1155069 | 2026-09-05 09:19:52 | 4529C | 30.6 °C | 53.1 % | | 09:19 |
| 1155068 | 2026-09-05 09:19:08 | 4529D | 29.8 °C | 67.8 % | | 09:19 |
| 1155067 | 2026-09-05 09:16:08 | 20402 | 26.9 °C | 43.9 % | | 09:16 |
| 1155066 | 2026-09-05 09:13:02 | 4529A | 29.0 °C | 66.7 % | | 09:13 |
| 1155065 | 2026-09-05 09:12:56 | 89M1A | 32.8 °C | 68.3 % | | 09:12 |
| 1155064 | 2026-09-05 09:10:53 | 89M1B | 31.4 °C | 69.6 % | | 09:10 |
| 1155063 | 2026-09-05 09:09:50 | 4529C | 30.5 °C | 53.6 % | | 09:09 |
| 1155062 | 2026-09-05 09:09:34 | 4529D | 29.7 °C | 67.6 % | | 09:09 |
| 1155061 | 2026-09-05 09:05:58 | 20402 | 27.2 °C | 45.0 % | | 09:05 |
| 1155060 | 2026-09-05 09:03:17 | 89M1A | 32.2 °C | 69.5 % | | 09:03 |
| 1155059 | 2026-09-05 09:02:51 | 4529A | 28.8 °C | 69.1 % | | 09:02 |
| 1155058 | 2026-09-05 09:01:15 | 89M1B | 31.4 °C | 69.7 % | | 09:01 |
| 1155057 | 2026-09-05 09:00:02 | 4529D | 29.8 °C | 67.4 % | | 09:00 |
| 1155056 | 2026-09-05 08:59:47 | 4529C | 30.4 °C | 54.1 % | | 08:59 |
| 1155055 | 2026-09-05 08:55:48 | 20402 | 27.4 °C | 46.6 % | | 08:55 |
| 1155054 | 2026-09-05 08:53:39 | 89M1A | 31.6 °C | 69.1 % | | 08:53 |
| 1155053 | 2026-09-05 08:52:40 | 4529A | 29.5 °C | 70.5 % | | 08:52 |
| 1155052 | 2026-09-05 08:51:36 | 89M1B | 31.2 °C | 69.7 % | | 08:51 |
| 1155051 | 2026-09-05 08:50:29 | 4529D | 29.3 °C | 66.8 % | | 08:50 |
| 1155050 | 2026-09-05 08:49:45 | 4529C | 30.4 °C | 55.4 % | | 08:49 |
| 1155049 | 2026-09-05 08:45:38 | 20402 | 27.9 °C | 49.1 % | | 08:45 |
| 1155048 | 2026-09-05 08:44:00 | 89M1A | 31.2 °C | 71.9 % | | 08:44 |
| 1155047 | 2026-09-05 08:42:35 | 4529A | 29.5 °C | 70.6 % | | 08:42 |
| 1155046 | 2026-09-05 08:41:57 | 89M1B | 31.2 °C | 69.8 % | | 08:41 |
| 1155045 | 2026-09-05 08:40:57 | 4529D | 29.8 °C | 67.0 % | | 08:40 |
| 1155044 | 2026-09-05 08:39:42 | 4529C | 30.3 °C | 55.6 % | | 08:39 |
| 1155043 | 2026-09-05 08:35:28 | 20402 | 28.6 °C | 52.6 % | | 08:35 |
| 1155042 | 2026-09-05 08:34:24 | 89M1A | 31.2 °C | 72.6 % | | 08:34 |
| 1155041 | 2026-09-05 08:32:21 | 4529A | 29.6 °C | 70.7 % | | 08:32 |
| 1155040 | 2026-09-05 08:32:19 | 89M1B | 31.2 °C | 69.6 % | | 08:32 |
| 1155039 | 2026-09-05 08:31:23 | 4529D | 29.8 °C | 66.9 % | | 08:31 |
| 1155038 | 2026-09-05 08:29:40 | 4529C | 30.3 °C | 55.7 % | | 08:29 |
| 1155037 | 2026-09-05 08:25:18 | 20402 | 30.0 °C | 58.0 % | | 08:25 |
| 1155036 | 2026-09-05 08:24:44 | 89M1A | 30.4 °C | 73.8 % | | 08:24 |
| 1155035 | 2026-09-05 08:22:40 | 89M1B | 31.1 °C | 69.8 % | | 08:22 |
| 1155034 | 2026-09-05 08:22:11 | 4529A | 29.3 °C | 69.4 % | | 08:22 |
| 1155033 | 2026-09-05 08:21:51 | 4529D | 29.6 °C | 66.7 % | | 08:21 |
| 1155032 | 2026-09-05 08:19:38 | 4529C | 30.3 °C | 55.8 % | | 08:19 |
| 1155031 | 2026-09-05 08:15:08 | 20402 | 30.1 °C | 57.0 % | | 08:15 |
| 1155030 | 2026-09-05 08:15:08 | 89M1A | 30.8 °C | 72.7 % | | 08:15 |
| 1155029 | 2026-09-05 08:13:01 | 89M1B | 31.2 °C | 70.2 % | | 08:13 |
| 1155028 | 2026-09-05 08:12:19 | 4529D | 29.8 °C | 66.8 % | | 08:12 |
| 1155027 | 2026-09-05 08:11:59 | 4529A | 29.2 °C | 65.1 % | | 08:11 |
| 1155026 | 2026-09-05 08:09:35 | 4529C | 30.2 °C | 55.8 % | | 08:09 |
| 1155025 | 2026-09-05 08:05:31 | 89M1A | 30.4 °C | 73.6 % | | 08:05 |
| 1155024 | 2026-09-05 08:04:58 | 20402 | 30.0 °C | 57.0 % | | 08:04 |
| 1155023 | 2026-09-05 08:03:23 | 89M1B | 31.2 °C | 69.0 % | | 08:03 |
| 1155022 | 2026-09-05 08:02:46 | 4529D | 29.7 °C | 66.7 % | | 08:02 |
Data every 20 minute.